Regional Weather Roundup
Issued by NWS Bismarck, ND

Home | Current Version | Previous Version | Text Only | Print | Product List | Glossary On
Versions: 1 2 3 4 5 6 7 8 9 10 11 12 13 14 15 16 17 18 19 20 21 22 23 24 25 26 27 28 29 30 31 32 33 34 35 36 37 38 39 40 41 42 43 44 45 46 47 48 49 50
000
ASUS43 KBIS 271310
RWRBIS

NWR BROADCAST TEXT
NATIONAL WEATHER SERVICE BISMARCK ND
700 AM CST FRI FEB 27 2015

NOTE: "FAIR" INDICATES FEW OR NO CLOUDS BELOW 12,000 FEET WITH NO
SIGNIFICANT WEATHER AND/OR OBSTRUCTIONS TO VISIBILITY.


CITY           SKY/WX    TMP DP  RH WIND       PRES   REMARKS
WILLISTON      MOCLDY   -11 -15  82 CALM      30.29F
MINOT          MOCLDY    -7 -13  75 SW13      30.34F WCI -27
MINOT AFB      MOCLDY   -13 -17  82 S6        30.34F WCI -27
BISMARCK       PTCLDY   -13 -18  78 E5        30.42S WCI -25
DICKINSON      CLEAR     -6 -12  75 S10       30.24F WCI -24
GARRISON         N/A    -14 -19  79 CALM      30.35F
HETTINGER ARPT CLEAR     -5 -11  75 SE7       30.27F WCI -19
JAMESTOWN      MOCLDY   -13 -19  75 W7        30.42R WCI -29
BEACH          FAIR      -2  -8  78 SE10      30.21F WCI -19
CARRINGTON     FAIR      -9 -13  84 MISG      30.41S
CROSBY         FAIR      -9 -15  77 S12       30.28F WCI -29
HARVEY         FAIR     -13 -18  77 SW9       30.39S WCI -31
HAZEN          FAIR     -15 -22  70 CALM      30.38S
LINTON         FAIR     -17 -20  83 E8        30.42F WCI -34
MANDAN         FAIR      -9 -13  84 S5        30.38S WCI -21
OAKES            N/A    -13 -18  77 S8        30.47S WCI -30
RUGBY          FAIR     -13 -18  77 SW7       30.38S WCI -29
TIOGA          FAIR     -20 -26  76 CALM      30.30S
WATFORD CITY   FAIR     -15 -20  76 CALM      30.26F
$$

CITY           SKY/WX    TMP DP  RH WIND       PRES   REMARKS
GRAND FORKS    PTCLDY   -16 -21  78 S5        30.44F WCI -29
GRAND FORKS AF PTCLDY   -12 -19  71 W6        30.43F WCI -26
DEVILS LAKE    PTCLDY   N/A N/A N/A MISG        N/A
FARGO          CLEAR    -11 -17  75 SW6       30.49S WCI -25
CANDO          FAIR     -17 -20  83 NW7       30.38S WCI -33
CAVALIER       FAIR      -2 -11  65 W7        30.40S WCI -16
GWINNER        SUNNY     -8 -15  71 SW12      30.48S WCI -27
ROLLA          FAIR     -11 -17  77 CALM      30.32F
WALHALLA         N/A     -2 -13  60 W8        30.39S WCI -17
$$

CITY           SKY/WX    TMP DP  RH WIND       PRES   REMARKS
ABERDEEN       CLEAR    -19 -25  73 S5        30.51S WCI -32
MOBRIDGE       PTCLDY    -7 -13  75 SE6       30.40S WCI -20
BUFFALO          N/A     -7 -12  79 SE9       30.12F WCI -24
RAPID CITY     CLEAR     -4  -9  79 SE8       30.23F WCI -19
GLASGOW        CLEAR     -1  -8  72 E12       30.14F WCI -18
SIDNEY         PTCLDY    -8 -24  45 CALM      30.29F
WOLF POINT     PTCLDY    -3  -9  75 E7        30.23F WCI -16
GLENDIVE       CLEAR      0  -8  71 SE5       30.20F WCI -10
MILES CITY     CLEAR      1  -6  72 SE12      30.15F WCI -16
BAKER          CLEAR     -5 -11  75 SE10      30.18F WCI -23
$$

CITY           SKY/WX    TMP DP  RH WIND       PRES   REMARKS
BILLINGS       CLEAR      1  -4  79 SW8       30.00F WCI -13
GREAT FALLS    PTCLDY    10   3  73 S6        29.90F WCI   0
REGINA         PTCLDY   -17 -22  76 SE9       30.21F WCI -36
ESTEVAN        MOCLDY   -18 -24  76 S6        30.27F WCI -33
$$




USA.gov is the U.S. government's official web portal to all federal, state and local government web resources and services.